Weather History for Hot Springs, VA

Change the Weather History Date:

Monday, February 4, 2013

  Actual Average Record
Temperature  
Mean Temperature 22 °F -  
Max Temperature 33 °F 34 °F 53 °F (2008)
Min Temperature 10 °F 20 °F 6 °F (2009)
Degree Days  
Heating Degree Days 44    
Moisture  
Dew Point 16 °F    
Average Humidity 81    
Maximum Humidity 100    
Minimum Humidity 60    
Precipitation  
Precipitation 0.00 in - - ()
Sea Level Pressure  
Sea Level Pressure 29.86 in    
Wind  
Wind Speed 22 mph (West)    
Max Wind Speed 32 mph    
Max Gust Speed 43 mph    
Visibility 9 miles    
Events Snow    
Averages and records for this station are not official NWS values.
T = Trace of Precipitation, MM = Missing Value Source: NWS Daily Summary

Daily Weather History Graph

Daily Weather History Graph

Search for Another Location

Airport:

Trip Planner

Search our weather history database for the weather conditions in past years. The results will help you decide how hot, cold, wet, or windy it might be!

Date:

Astronomy

Feb. 04, 2013 Rise Set
Actual Time 7:20 AM EST 5:46 PM EST
Civil Twilight 6:53 AM EST 6:13 PM EST
Nautical Twilight 6:21 AM EST 6:45 PM EST
Astronomical Twilight 5:51 AM EST 7:15 PM EST
Moon 1:53 AM EST (2/4) 12:10 PM EST (2/4)
Length of Visible Light 11h 20m
Length of Day
10h 25m
Last Quarter, 37% of the Moon is Illuminated
Feb 4
Last Quarter
Feb 10
New
Feb 17
First Quarter
Feb 25
Full
Mar 4
Last Quarter

Hourly Weather History & Observations

Time (EST) Temp. Windchill Dew Point Humidity Pressure Visibility Wind Dir Wind Speed Gust Speed Precip Events Conditions
12:15 AM 15.8 °F -5.0 °F 10.4 °F 79% 29.82 in 10.0 mi West 32.2 mph 38.0 mph N/A Snow Light Snow
12:35 AM 14.0 °F -7.1 °F 10.4 °F 86% 29.82 in 10.0 mi WNW 31.1 mph 41.4 mph N/A Snow Light Snow
12:55 AM 14.0 °F -7.4 °F 8.6 °F 79% 29.82 in 10.0 mi WNW 32.2 mph 40.3 mph N/A   Mostly Cloudy
1:15 AM 14.0 °F -6.5 °F 8.6 °F 79% 29.82 in 10.0 mi WNW 28.8 mph 42.6 mph N/A   Mostly Cloudy
1:35 AM 12.2 °F -9.6 °F 10.4 °F 92% 29.81 in 10.0 mi West 31.1 mph 40.3 mph N/A Snow Light Snow
1:55 AM 12.2 °F -9.9 °F 8.6 °F 85% 29.81 in 10.0 mi WNW 32.2 mph 40.3 mph N/A   Mostly Cloudy
2:15 AM 12.2 °F -8.6 °F 8.6 °F 85% 29.80 in 10.0 mi West 27.6 mph 36.8 mph N/A   Mostly Cloudy
2:35 AM 12.2 °F -9.3 °F 8.6 °F 85% 29.81 in 10.0 mi WNW 29.9 mph 42.6 mph N/A Snow Light Snow
2:55 AM 12.2 °F -9.3 °F 10.4 °F 92% 29.81 in 10.0 mi WNW 29.9 mph 39.1 mph N/A   Scattered Clouds
3:15 AM 12.2 °F -8.6 °F 8.6 °F 85% 29.80 in 10.0 mi WNW 27.6 mph 36.8 mph N/A   Scattered Clouds
3:35 AM 12.2 °F -7.9 °F 8.6 °F 85% 29.81 in 10.0 mi WNW 25.3 mph 34.5 mph N/A   Scattered Clouds
3:55 AM 12.2 °F -7.1 °F 8.6 °F 85% 29.82 in 10.0 mi WNW 23.0 mph 32.2 mph N/A   Clear
4:15 AM 12.2 °F -7.1 °F 8.6 °F 85% 29.82 in 10.0 mi WNW 23.0 mph 32.2 mph N/A   Clear
5:55 AM 10.4 °F -8.2 °F 8.6 °F 92% 29.85 in 10.0 mi West 19.6 mph 26.5 mph N/A   Clear
6:15 AM 10.4 °F -9.1 °F 8.6 °F 92% 29.86 in 10.0 mi West 21.9 mph 31.1 mph N/A   Clear
6:35 AM 10.4 °F -9.1 °F 8.6 °F 92% 29.87 in 10.0 mi WNW 21.9 mph 27.6 mph N/A   Clear
6:55 AM 10.4 °F -8.2 °F 8.6 °F 92% 29.87 in 10.0 mi West 19.6 mph 27.6 mph N/A   Clear
7:15 AM 10.4 °F -7.7 °F 8.6 °F 92% 29.88 in 10.0 mi West 18.4 mph - N/A   Clear
7:55 AM 12.2 °F -5.8 °F 8.6 °F 85% 29.89 in 10.0 mi West 19.6 mph 23.0 mph N/A   Clear
8:15 AM 12.2 °F -5.3 °F 8.6 °F 85% 29.90 in 10.0 mi WNW 18.4 mph - N/A   Clear
8:35 AM 12.2 °F -3.7 °F 10.4 °F 92% 29.91 in 10.0 mi West 15.0 mph - N/A   Clear
8:55 AM 12.2 °F -2.5 °F 10.4 °F 92% 29.91 in 10.0 mi West 12.7 mph - N/A   Clear
9:15 AM 14.0 °F 0.5 °F 10.4 °F 86% 29.92 in 10.0 mi West 11.5 mph - N/A   Clear
9:35 AM 14.0 °F -1.4 °F 10.4 °F 86% 29.92 in 10.0 mi West 15.0 mph - N/A   Clear
9:55 AM 15.8 °F -0.6 °F 10.4 °F 79% 29.93 in 10.0 mi West 18.4 mph 21.9 mph N/A   Clear
10:15 AM 15.8 °F 1.4 °F 10.4 °F 79% 29.92 in 10.0 mi West 13.8 mph 19.6 mph N/A   Clear
10:35 AM 15.8 °F 2.1 °F 12.2 °F 86% 29.92 in 10.0 mi West 12.7 mph - N/A   Clear
10:55 AM 17.6 °F 2.7 °F 12.2 °F 79% 29.92 in 10.0 mi West 16.1 mph - N/A   Clear
11:15 AM 17.6 °F 4.3 °F 12.2 °F 79% 29.92 in 10.0 mi West 12.7 mph 17.3 mph N/A   Clear
11:35 AM 17.6 °F 3.7 °F 12.2 °F 79% 29.92 in 10.0 mi West 13.8 mph - N/A   Clear
11:55 AM 19.4 °F 6.0 °F 12.2 °F 74% 29.91 in 10.0 mi West 13.8 mph - N/A   Clear
12:15 PM 19.4 °F 6.6 °F 14.0 °F 80% 29.91 in 10.0 mi West 12.7 mph - N/A   Clear
12:35 PM 19.4 °F 6.0 °F 14.0 °F 80% 29.90 in 10.0 mi West 13.8 mph - N/A   Clear
12:55 PM 21.2 °F 8.3 °F 15.8 °F 80% 29.90 in 10.0 mi WSW 13.8 mph - N/A   Clear
1:15 PM 23.0 °F 9.2 °F 15.8 °F 74% 29.89 in 10.0 mi WSW 17.3 mph - N/A   Clear
1:35 PM 23.0 °F 10.6 °F 15.8 °F 74% 29.88 in 10.0 mi West 13.8 mph - N/A   Clear
1:55 PM 24.8 °F 12.9 °F 15.8 °F 69% 29.87 in 10.0 mi WSW 13.8 mph - N/A   Clear
2:15 PM 24.8 °F 11.9 °F 17.6 °F 74% 29.86 in 10.0 mi WSW 16.1 mph - N/A   Clear
2:35 PM 26.6 °F 15.7 °F 17.6 °F 69% 29.86 in 10.0 mi WSW 12.7 mph - N/A   Clear
2:55 PM 26.6 °F 14.3 °F 17.6 °F 69% 29.86 in 10.0 mi WSW 16.1 mph - N/A   Clear
3:15 PM 26.6 °F 14.3 °F 17.6 °F 69% 29.86 in 10.0 mi WSW 16.1 mph - N/A   Scattered Clouds
3:35 PM 26.6 °F 14.7 °F 17.6 °F 69% 29.86 in 10.0 mi WSW 15.0 mph 20.7 mph N/A   Scattered Clouds
3:55 PM 26.6 °F 14.3 °F 17.6 °F 69% 29.85 in 10.0 mi WSW 16.1 mph - N/A   Overcast
4:15 PM 28.4 °F 17.0 °F 17.6 °F 64% 29.85 in 10.0 mi WSW 15.0 mph - N/A   Overcast
4:35 PM 28.4 °F 17.5 °F 19.4 °F 69% 29.84 in 10.0 mi WSW 13.8 mph - N/A   Overcast
4:55 PM 28.4 °F 17.5 °F 19.4 °F 69% 29.83 in 10.0 mi WSW 13.8 mph 19.6 mph N/A   Overcast
5:15 PM 30.2 °F 20.2 °F 19.4 °F 64% 29.83 in 10.0 mi WSW 12.7 mph - N/A   Overcast
5:35 PM 30.2 °F 20.2 °F 19.4 °F 64% 29.84 in 10.0 mi WSW 12.7 mph - N/A   Overcast
5:55 PM 30.2 °F 21.3 °F 21.2 °F 69% 29.84 in 10.0 mi WSW 10.4 mph - N/A   Overcast
6:15 PM 30.2 °F 21.9 °F 21.2 °F 69% 29.84 in 10.0 mi WSW 9.2 mph - N/A   Overcast
6:35 PM 30.2 °F 21.9 °F 21.2 °F 69% 29.85 in 10.0 mi WSW 9.2 mph - N/A   Overcast
6:55 PM 30.2 °F 17.8 °F 21.2 °F 69% 29.85 in 10.0 mi WSW 19.6 mph 26.5 mph N/A   Overcast
7:15 PM 30.2 °F 20.8 °F 24.8 °F 80% 29.85 in 10.0 mi WSW 11.5 mph - N/A   Overcast
7:35 PM 32.0 °F 23.0 °F 21.2 °F 64% 29.85 in 10.0 mi WSW 11.5 mph - N/A   Overcast
7:55 PM 32.0 °F 20.8 °F 21.2 °F 64% 29.85 in 10.0 mi WSW 17.3 mph 25.3 mph N/A   Overcast
8:15 PM 33.8 °F 23.5 °F 21.2 °F 60% 29.86 in 10.0 mi WSW 16.1 mph - N/A   Overcast
8:35 PM 33.8 °F 21.0 °F 23.0 °F 65% 29.85 in 10.0 mi West 25.3 mph 33.4 mph N/A   Overcast
8:55 PM 32.0 °F 19.5 °F 24.8 °F 75% 29.86 in 10.0 mi West 21.9 mph 34.5 mph N/A   Overcast
9:15 PM 30.2 °F 16.8 °F 26.6 °F 86% 29.86 in 5.0 mi West 23.0 mph 33.4 mph N/A Snow Light Snow
9:35 PM 30.2 °F 17.4 °F 28.4 °F 93% 29.86 in 1.8 mi WSW 20.7 mph 27.6 mph N/A Snow Light Snow
9:55 PM 30.2 °F 16.8 °F 28.4 °F 93% 29.84 in 0.5 mi West 23.0 mph - N/A Snow Snow
10:15 PM 30.2 °F 16.8 °F 30.2 °F 100% 29.84 in 0.8 mi WSW 23.0 mph 31.1 mph N/A Snow Light Snow
10:35 PM 28.4 °F 15.4 °F 28.4 °F 100% 29.84 in 7.0 mi West 19.6 mph 26.5 mph N/A   Overcast
10:55 PM 30.2 °F 16.8 °F 30.2 °F 100% 29.84 in 7.0 mi West 23.0 mph 29.9 mph N/A   Overcast
11:15 PM 30.2 °F 16.8 °F 30.2 °F 100% 29.83 in 5.0 mi West 23.0 mph 28.8 mph N/A   Overcast
11:35 PM 30.2 °F 16.5 °F 30.2 °F 100% 29.83 in 2.5 mi West 24.2 mph 28.8 mph N/A   Overcast
11:55 PM 30.2 °F 18.5 °F 30.2 °F 100% 29.82 in 3.0 mi West 17.3 mph 28.8 mph N/A   Overcast